Home > Weather > Grand Junction > Past weeks

Flag for USA Weather for the Past 2 Weeks in Grand Junction, Colorado, USA

Now
57 °F

Clear.


Feels Like: 55 °F
Forecast: 50 / 84 °F
Wind: 9 mph from Southeast

Location: Walker Field

Current Time: May 5, 2016 at 12:59:02 AM

Latest Report: May 4, 2016 at 11:53 PM


Visibility: 10 mi

Pressure: 29.93 "Hg (25.34 "Hg at 1398m altitude)

Humidity: 41%

Dew Point: 33 °F

Location of Grand JunctionLocation

Historic Weather in Grand Junction — Graph

°F

Grand Junction Temperature Yesterday

Maximum temperature yesterday: 76 °F (at 3:53 PM)
Minimum temperature yesterday: 47 °F (at 4:53 AM)
Average temperature yesterday: 61 °F

High & Low Weather Summary for the Past Weeks

 TemperatureHumidityPressure
High79 °F (Apr 22, 2:53 PM)100% (Apr 27, 5:53 AM)30.16 "Hg (Apr 27, 5:53 AM)
Low36 °F (Apr 27, 5:53 AM)10% (Apr 22, 4:53 PM)29.41 "Hg (Apr 25, 2:53 PM)
Average53 °F53%29.84 "Hg
* Reported Apr 19 11:53 PM — May 4 11:53 PM, Grand Junction, Weather by CustomWeather, © 2016

Note: Actual official high and low records may vary slightly from our data, if they occured in-between our weather recording intervals... More about our weather records

Advertising

Grand Junction Weather History for the Previous 24 Hours

Scroll right to see more
 ConditionsComfort  
Time TempWeatherWind HumidityBarometerVisibility
11:53 PM
Wed, May 4
57 °FClear.9 mph41%29.93 "Hg10 mi
10:53 PM59 °FClear.8 mph41%29.95 "Hg10 mi
9:53 PM58 °FClear.3 mph46%29.94 "Hg10 mi
8:53 PM59 °FSunny.No wind49%29.93 "Hg10 mi
7:53 PM71 °FSunny.5 mph26%29.90 "Hg10 mi
6:53 PM75 °FSunny.6 mph19%29.90 "Hg10 mi
5:53 PM76 °FSunny.No wind17%29.92 "Hg10 mi
4:53 PM76 °FSunny.7 mph17%29.93 "Hg10 mi
3:53 PM76 °FSunny.8 mph18%29.97 "Hg10 mi
2:53 PM75 °FSunny.8 mph20%30.00 "Hg10 mi
1:53 PM74 °FSunny.10 mph21%30.02 "Hg10 mi
12:53 PM72 °FSunny.6 mph21%30.05 "Hg10 mi
11:53 AM69 °FSunny.5 mph23%30.09 "Hg10 mi
10:53 AM65 °FSunny.8 mph27%30.11 "Hg10 mi
9:53 AM63 °FSunny.9 mph29%30.12 "Hg10 mi
8:53 AM57 °FSunny.14 mph39%30.14 "Hg10 mi
7:53 AM53 °FSunny.13 mph47%30.12 "Hg10 mi
6:53 AM48 °FClear.8 mph52%30.11 "Hg10 mi
5:53 AM48 °FClear.13 mph52%30.10 "Hg10 mi
4:53 AM47 °FClear.10 mph56%30.08 "Hg10 mi
3:53 AM48 °FClear.9 mph54%30.08 "Hg10 mi
2:53 AM49 °FClear.6 mph55%30.07 "Hg10 mi
1:53 AM49 °FClear.3 mph59%30.07 "Hg10 mi
12:53 AM51 °FClear.7 mph54%30.07 "Hg10 mi
Weather by CustomWeather, © 2016

See weather overviewHow to use our weather pages